Simultaneous Nadir Overpasses (SNOs) Predictions

Prediction of SNOs between LANDSAT-8 and NPP Satellite Orbit:

Table of predicted SNOs for the next 14.0 days since TLE Epoch: 2/5/2016
Index Date (LANDSAT-8) Time (LANDSAT-8) Lat,Lon (LANDSAT-8) SZA (LANDSAT-8 ) Date (NPP) Time (NPP) Lat,Lon (NPP) SZA (NPP ) Distance(km) Time Diff (sec)
1 02/07/2016 21:35:57 -70.31, 32.71 94.40 02/07/2016 21:34:49 -70.31, 32.75 94.39 1.58 68
2 02/07/2016 22:25:24 70.20,-159.79 85.49 02/07/2016 22:25:33 70.18,-159.74 85.47 3.37 9
3 02/07/2016 23:14:59 -69.82, 7.30 94.89 02/07/2016 23:16:10 -69.85, 8.09 94.90 30.56 71
4 02/10/2016 13:52:25 -70.30, 148.58 95.26 02/10/2016 13:51:41 -70.30, 148.55 95.25 1.33 44
5 02/10/2016 14:41:52 70.19, -43.93 84.63 02/10/2016 14:42:25 70.17, -43.95 84.61 2.14 33
6 02/13/2016 05:19:12 70.99, 97.87 84.53 02/13/2016 05:18:04 71.06, 95.78 84.69 76.02 68
7 02/13/2016 06:08:54 -70.23, -95.64 96.21 02/13/2016 06:08:32 -70.24, -95.58 96.20 2.55 22
8 02/13/2016 06:58:21 70.12, 71.85 83.68 02/13/2016 06:59:16 70.12, 71.91 83.67 2.49 55
9 02/15/2016 21:35:52 70.31,-147.28 82.97 02/15/2016 21:34:42 70.32,-147.25 83.00 2.00 70
10 02/15/2016 22:25:22 -70.20, 20.21 97.15 02/15/2016 22:25:23 -70.19, 20.28 97.17 3.45 1
11 02/15/2016 23:14:52 69.92,-172.54 82.58 02/15/2016 23:16:04 69.91,-171.99 82.54 21.21 72
12 02/18/2016 13:52:19 70.27, -31.44 82.00 02/18/2016 13:51:32 70.27, -31.39 82.01 1.99 47
13 02/18/2016 14:41:49 -70.17, 136.04 98.11 02/18/2016 14:42:14 -70.18, 136.06 98.10 1.90 25




NCC Satellite Simultaneous Nadir Overpasses (SNOs) Prediction Service
